CAPE
9 4 0 0 0 0 0 0 0 0 0 0 0 0 0 0 0 0 0 0 0 0 0 0 0 0 0 3 0 5 7 11 4 6 4 4 2 2 1 1 2 1 1 2
2 0 0 0 0 0 0 0 0 0 0 0 0 0 0 0 0 0 0 0 0 0 0 0 0 0 0 0 0 0 2 8 3 4 11 4 4 2 1 1 0 0 1 1
0 5 1 0 0 0 0 0 0 0 0 0 0 0 0 0 0 0 0 0 0 0 0 0 0 0 0 0 0 0 0 0 1 1 3 0 2 1 1 1 1 1 0 0
0 0 0 0 0 0 0 0 0 1 0 0 0 0 0 0 0 0 0 0 0 0 0 0 0 0 0 0 0 0 0 0 0 0 0 1 2 5 0 0 2 0 0 0
0 0 0 8 10 2 4 0 0 2 0 0 0 0 0 0 0 0 0 0 0 0 0 0 0 0 0 0 0 0 0 0 0 0 0 0 0 2 0 0 0 0 0 0
0 0 0 0 0 0 0 2 0 1 0 0 0 0 0 0 0 0 0 0 0 0 0 0 0 0 0 0 0 0 0 0 0 0 0 0 0 0 0 0 0 0 0 0
0 0 0 0 0 0 0 0 1 0 0 0 0 0 0 0 0 0 0 0 0 0 0 0 0 0 0 0 0 0 0 0 0 0 0 0 0 0 0 0 0 0 0 0
0 0 0 0 0 0 0 0 0 0 0 0 0 0 0 0 0 0 0 0 0 0 0 0 0 0 0 0 0 0 0 0 0 0 0 0 0 0 0 0 0 0 0 0
0 0 0 0 0 0 0 0 0 0 0 0 0 0 0 0 0 0 0 0 0 0 0 0 0 0 0 0 0 0 0 0 2 0 0 0 0 0 0 0 2 0 0 0
0 0 0 0 0 0 0 0 0 0 0 0 0 0 0 0 0 0 0 0 0 0 0 0 0 0 0 0 0 4 2 1 0 0 0 0 2 0 0 1 3 2 1 1
0 0 0 2 0 0 0 0 0 0 0 0 0 0 0 0 0 0 0 0 0 0 0 0 0 0 0 0 4 11 0 1 0 0 0 3 4 4 1 0 0 0 1 0
0 0 0 2 0 0 0 0 0 0 0 0 0 0 0 0 0 0 0 0 0 0 0 0 0 0 0 0 0 0 0 0 1 0 0 1 0 2 3 0 1 0 0 0
0 0 0 0 0 0 0 0 0 0 0 0 0 0 0 0 0 0 0 0 0 0 0 0 0 0 0 0 0 0 0 1 1 2 4 2 2 3 6 4 1 1 0 0
0 0 0 0 0 0 0 0 0 0 0 0 0 0 0 0 0 0 0 0 0 0 0 0 0 0 0 0 0 0 4 4 8 3 3 4 2 3 6 2 0 0 0 0
0 0 0 0 0 0 0 0 0 0 0 0 0 0 0 0 0 0 0 0 0 0 0 0 0 0 1 1 0 7 6 4 1 3 4 3 5 5 2 4 8 4 2 1
0 0 0 0 0 0 0 0 0 0 0 0 0 0 0 0 0 0 0 0 0 0 0 0 0 0 0 0 7 5 5 0 0 7 8 5 2 4 3 6 7 2 1 1
0 0 0 0 0 0 0 0 0 0 0 0 0 0 0 0 0 0 0 0 0 0 0 0 0 0 0 0 1 4 0 0 1 0 0 0 1 0 0 2 0 3 0 0
0 0 0 0 0 0 0 0 0 0 0 0 0 0 0 0 0 0 0 0 0 0 0 0 0 0 0 0 0 0 0 0 2 0 0 1 0 0 0 0 1 1 3 2
0 0 0 0 0 0 0 0 0 0 0 0 0 0 0 0 0 0 0 0 0 0 0 0 0 0 0 0 0 0 1 1 0 0 1 0 0 0 0 0 2 2 4 1
0 0 0 0 0 0 0 0 0 0 0 0 0 0 0 0 0 0 0 0 0 0 0 0 0 0 0 0 0 0 0 0 0 0 0 0 0 0 0 0 0 0 0 2
0 0 0 0 0 0 0 0 0 0 0 0 0 0 0 0 0 0 0 0 0 0 0 0 0 0 0 0 0 0 0 0 0 0 0 0 0 0 0 0 0 0 0 2
0 0 0 0 0 0 0 0 0 0 0 0 0 0 0 0 0 0 0 0 0 0 0 0 3 0 0 0 0 1 1 0 1 0 0 0 0 0 0 0 0 0 0 0
0 0 0 0 0 0 0 0 0 0 0 0 0 0 0 0 0 0 0 0 0 0 0 0 1 1 0 0 6 5 5 2 2 2 0 0 0 1 1 1 0 0 0 0
0 0 0 0 0 0 0 0 0 0 0 0 0 0 0 0 0 0 0 0 0 0 0 0 0 1 0 3 5 6 8 5 8 6 1 0 0 0 0 0 0 0 0 0
0 0 0 0 0 0 0 0 0 0 0 0 0 0 0 0 0 0 0 0 0 0 1 0 0 1 0 1 0 1 2 5 0 1 4 3 0 0 1 1 1 2 1 1
0 0 0 0 0 0 0 0 0 0 0 0 0 0 0 0 0 0 0 0 0 1 0 0 0 0 0 0 0 0 1 1 0 2 3 4 2 1 0 0 0 1 1 1
0 0 0 0 0 0 0 0 0 0 0 0 0 0 0 0 0 0 0 0 0 0 0 0 0 0 0 0 1 0 0 0 2 0 1 2 0 0 1 0 1 1 1 1
CIN
-4 -2 -0 -0 -0 -0 -0 -0 -0 -0 -0 -0 -0 -0 -0 -0 -0 -0 -0 -0 -0 -0 -0 -0 -0 -0 -0 -0 -0 -0 -0 -0 -0 -0 -0 -0 -0 -0 -0 -0 -0 -0 -0 -0
-1 -0 -0 -0 -0 -0 -0 -0 -0 -0 -0 -0 -0 -0 -0 -0 -0 -0 -0 -0 -0 -0 -0 -0 -0 -0 -0 -0 -0 -0 -0 -0 -0 -0 -0 -0 -1 -0 -0 -0 -0 -0 -0 -0
-0 -6 -0 -0 -0 -0 -0 -0 -0 -0 -0 -0 -0 -0 -0 -0 -0 -0 -0 -0 -0 -0 -0 -0 -0 -0 -0 -0 -0 -0 -0 -0 -0 -1 -0 -0 -0 -0 -0 -0 -0 -0 -0 -0
-0 -0 -2 -0 -0 -0 -7 -0 -0 -5 -0 -0 -0 -0 -0 -0 -0 -0 -0 -0 -0 -0 -0 -0 -0 -0 -0 -0 -0 -0 -0 -0 -0 -0 -0 -1 -0 -0 -0 -0 -0 -0 -0 -0
-0 -0 -0 -7 -14 -18 -17 -0 -0 -19 -0 -0 -0 -0 -0 -0 -0 -0 -0 -0 -0 -0 -0 -0 -0 -0 -0 -0 -0 -0 -0 -0 -0 -0 -0 -0 -0 -0 -0 -0 -0 -0 -0 -0
-0 -0 -6 -0 -0 -0 -1 -4 -13 -30 -0 -0 -0 -0 -0 -0 -0 -0 -0 -0 -0 -0 -0 -0 -0 -0 -0 -0 -0 -0 -0 -0 -0 -0 -0 -0 -0 -0 -0 -0 -0 -0 -0 -0
-0 -0 -0 -0 -0 -0 -0 -0 -1 -0 -0 -0 -0 -0 -0 -0 -0 -0 -0 -0 -0 -0 -0 -0 -0 -0 -0 -0 -0 -0 -0 -0 -5 -0 -0 -0 -0 -0 -0 -1 -0 -0 -0 -0
-0 -0 -0 -0 -0 -0 -0 -0 -0 -0 -0 -0 -0 -0 -0 -0 -0 -0 -0 -0 -0 -0 -0 -0 -0 -0 -0 -0 -0 -0 -0 -0 -0 -1 -0 -0 -0 -0 -0 -0 -0 -0 -0 -0
-0 -0 -0 -0 -0 -0 -0 -0 -0 -0 -0 -0 -0 -0 -0 -0 -0 -0 -0 -0 -0 -0 -0 -0 -0 -0 -0 -0 -0 -0 -0 -0 -2 -0 -0 -0 -7 -0 -4 -6 -2 -0 -0 -0
-0 -0 -0 -0 -3 -0 -0 -0 -0 -0 -0 -0 -0 -0 -0 -0 -0 -0 -0 -0 -0 -0 -0 -0 -0 -0 -0 -0 -0 -2 -1 -1 -0 -0 -0 -1 -2 -15 -10 -4 -1 -1 -0 -1
-0 -4 -0 -14 -0 -0 -0 -0 -0 -0 -0 -0 -0 -0 -0 -0 -0 -0 -0 -0 -0 -0 -0 -0 -0 -0 -0 -0 -4 -0 -2 -0 -0 -0 -0 -2 -6 -9 -11 -1 -8 -1 -5 -6
-0 -0 -1 -19 -0 -0 -0 -0 -0 -0 -0 -0 -0 -0 -0 -0 -0 -0 -0 -0 -0 -0 -0 -0 -0 -0 -0 -0 -0 -0 -0 -0 -2 -4 -5 -4 -7 -7 -10 -10 -10 -14 -9 -0
-0 -0 -0 -0 -0 -0 -0 -0 -0 -0 -0 -0 -0 -0 -0 -0 -0 -0 -0 -0 -0 -0 -0 -0 -0 -0 -0 -0 -0 -0 -0 -2 -3 -5 -2 -2 -4 -2 -0 -7 -11 -11 -15 -0
-0 -0 -0 -0 -0 -0 -0 -0 -0 -0 -0 -0 -0 -0 -0 -0 -0 -0 -0 -0 -0 -0 -0 -0 -0 -0 -0 -0 -0 -0 -8 -5 -2 -6 -6 -3 -3 -3 -1 -4 -3 -13 -31 -0
-0 -0 -0 -0 -0 -0 -0 -0 -0 -0 -0 -0 -0 -0 -0 -0 -0 -0 -0 -0 -0 -0 -0 -0 -0 -0 -1 -0 -0 -7 -3 -3 -11 -10 -7 -5 -4 -3 -9 -6 -2 -4 -8 -7
-0 -0 -0 -0 -0 -0 -0 -0 -0 -0 -0 -0 -0 -0 -0 -0 -0 -0 -0 -0 -0 -0 -0 -1 -0 -0 -0 -0 -16 -17 -4 -0 -10 -7 -0 -3 -3 -1 -4 -0 -1 -2 -0 -0
-0 -0 -0 -0 -0 -0 -0 -0 -0 -0 -0 -0 -0 -0 -0 -0 -0 -0 -0 -0 -0 -0 -0 -0 -0 -0 -0 -0 -11 -15 -14 -0 -17 -0 -0 -0 -0 -0 -0 -3 -1 -0 -1 -0
-0 -0 -0 -0 -0 -0 -0 -0 -0 -0 -0 -0 -0 -0 -0 -0 -0 -0 -0 -0 -0 -0 -0 -0 -0 -0 -0 -1 -0 -0 -0 -0 -0 -0 -0 -0 -0 -0 -0 -0 -0 -0 -0 -0
-0 -0 -0 -0 -0 -0 -0 -0 -0 -0 -0 -0 -0 -0 -0 -0 -0 -0 -0 -0 -0 -0 -0 -0 -0 -0 -0 -0 -0 -0 -0 -0 -0 -0 -0 -0 -0 -0 -0 -0 -0 -0 -0 -0
-0 -0 -0 -0 -0 -0 -0 -0 -0 -0 -0 -0 -0 -0 -0 -0 -0 -0 -0 -0 -0 -0 -0 -0 -0 -0 -0 -0 -0 -0 -0 -0 -0 -0 -0 -0 -0 -0 -0 -0 -0 -0 -0 -0
-0 -0 -0 -0 -0 -0 -0 -0 -0 -0 -0 -0 -0 -0 -0 -0 -0 -0 -0 -0 -0 -0 -0 -0 -3 -0 -0 -0 -0 -0 -0 -0 -0 -0 -0 -0 -0 -0 -0 -0 -0 -1 -0 -0
-0 -0 -0 -0 -0 -0 -0 -0 -0 -0 -0 -0 -0 -0 -0 -0 -0 -0 -0 -0 -0 -0 -0 -0 -4 -0 -0 -0 -4 -6 -1 -0 -3 -0 -0 -0 -0 -0 -0 -0 -0 -0 -0 -0
-0 -0 -0 -0 -0 -0 -0 -0 -0 -0 -0 -0 -0 -0 -0 -0 -0 -0 -0 -0 -0 -0 -0 -1 -5 -12 -0 -1 -7 -5 -1 -1 -2 -1 -0 -0 -0 -0 -0 -0 -0 -0 -0 -0
-0 -0 -0 -0 -0 -0 -0 -0 -0 -0 -0 -0 -0 -0 -0 -0 -0 -0 -0 -0 -0 -0 -4 -0 -0 -7 -4 -3 -3 -1 -1 -0 -0 -1 -2 -2 -0 -0 -0 -0 -0 -0 -0 -0
-0 -0 -0 -0 -0 -0 -0 -0 -0 -0 -0 -0 -0 -0 -0 -0 -0 -0 -0 -0 -0 -0 -4 -1 -3 -4 -0 -2 -3 -3 -3 -0 -4 -2 -1 -0 -0 -0 -0 -0 -0 -0 -0 -0
-0 -0 -0 -0 -0 -0 -0 -0 -0 -0 -0 -0 -0 -0 -0 -0 -0 -0 -0 -0 -0 -6 -0 -0 -0 -1 -0 -0 -0 -1 -3 -4 -0 -2 -1 -1 -1 -0 -1 -0 -1 -0 -0 -0
-0 -0 -0 -0 -0 -0 -0 -0 -0 -0 -0 -0 -0 -0 -0 -0 -0 -0 -0 -0 -0 -1 -0 -1 -0 -0 -3 -0 -5 -1 -5 -2 -2 -0 -2 -0 -0 -0 -0 -0 -0 -0 -0 -0
Wind_Speed
6 7 5 6 5 6 5 1 5 5 3 10 10 6 7 7 8 9 10 11 12 9 9 8 11 13 11 13 17 17 17 16 16 16 15 16 17 16 17 16 14 13 13 12
2 8 7 7 8 5 3 1 1 5 7 9 10 5 6 6 9 10 10 10 13 10 9 9 11 12 12 10 11 14 14 15 17 17 14 15 12 13 15 14 12 12 13 13
3 8 5 3 3 4 3 4 4 2 10 6 5 5 4 5 6 9 11 6 11 13 7 6 8 9 10 12 6 13 14 12 14 15 14 14 15 17 17 14 13 14 13 10
4 2 1 4 6 4 3 4 3 5 2 6 5 3 5 5 5 8 11 6 7 8 7 5 6 10 7 11 12 13 14 15 13 14 13 12 15 15 13 11 12 11 11 10
2 2 1 4 6 6 6 2 3 9 5 6 8 6 3 5 5 6 7 7 5 6 5 7 9 11 14 11 13 12 15 14 11 13 13 15 15 14 13 12 11 10 10 10
2 1 4 5 5 4 4 1 12 7 5 5 6 4 5 7 6 7 7 7 7 7 6 6 7 10 12 13 13 12 14 14 7 9 11 12 11 12 9 9 10 8 10 10
1 1 3 2 3 5 6 7 4 4 4 5 3 4 4 5 6 6 5 7 7 7 6 7 9 11 12 13 15 14 14 14 12 7 10 10 9 7 10 7 7 8 8 9
1 4 5 3 2 4 9 3 1 2 4 5 0 3 3 5 5 7 8 8 9 8 7 10 12 12 13 13 13 13 14 15 14 8 9 9 12 10 11 12 12 12 11 8
7 7 8 6 7 2 1 1 2 5 4 5 2 2 5 5 6 6 7 6 7 6 7 8 10 10 10 10 13 13 14 14 12 11 13 11 10 11 9 9 8 10 10 10
5 6 8 8 3 4 1 3 3 4 3 3 2 3 3 3 2 3 4 5 5 7 7 7 7 9 9 8 10 10 13 14 13 12 14 11 8 7 7 9 9 8 9 9
4 5 3 3 4 5 3 1 6 7 5 4 3 3 2 3 2 4 7 10 10 10 10 8 6 7 7 8 9 11 12 11 12 11 12 11 10 7 5 6 7 8 8 8
7 8 6 2 6 4 4 3 7 7 6 6 5 6 6 7 8 8 8 7 7 8 9 9 9 8 9 8 8 8 11 11 8 8 8 8 8 9 8 7 11 13 15 10
4 4 6 6 3 5 6 6 5 2 4 5 7 6 8 6 7 6 7 7 6 6 6 7 9 7 9 9 9 9 11 10 8 8 8 9 8 8 10 8 8 10 13 15
4 5 3 2 5 6 6 5 3 7 6 7 6 8 7 7 7 7 6 5 6 5 6 7 7 7 9 8 9 9 9 9 7 7 8 8 8 8 8 8 10 10 9 11
6 3 4 7 6 2 5 7 8 7 6 7 7 6 6 7 6 5 5 6 6 5 6 6 5 6 10 10 10 10 9 8 8 7 7 8 8 8 8 8 8 9 9 6
5 2 2 3 4 5 9 8 8 6 6 6 6 6 6 5 3 4 6 6 6 6 7 4 5 6 7 6 5 5 6 9 8 7 8 7 7 8 8 8 8 8 9 9
3 4 2 4 8 7 8 6 6 5 5 6 5 5 5 4 4 5 6 6 6 5 5 6 4 6 7 6 5 6 6 7 10 6 7 7 7 7 8 7 8 8 9 10
5 6 7 8 7 7 6 6 5 6 3 4 3 3 3 2 4 5 6 6 7 5 5 6 5 8 7 6 6 6 6 7 7 7 7 7 8 6 7 7 8 9 8 9
5 7 8 8 7 6 5 5 5 5 5 5 4 2 3 3 4 5 6 4 4 4 6 7 9 7 8 8 7 6 7 7 7 7 7 8 7 7 7 7 8 9 8 9
5 6 7 7 7 5 4 4 7 5 5 5 3 1 4 5 4 5 5 4 3 1 5 7 7 6 8 9 10 5 6 6 7 7 7 7 7 8 7 8 8 8 8 9
1 4 6 7 7 6 6 7 6 6 5 5 5 4 5 5 4 4 4 1 0 4 6 7 5 4 5 7 5 5 5 7 6 7 7 7 8 8 8 9 9 9 9 8
3 1 2 4 5 5 5 6 6 4 5 4 4 3 3 5 5 4 1 3 1 4 5 4 4 5 6 8 5 5 6 7 7 7 7 7 7 7 7 8 8 7 8 8
6 6 6 6 7 8 5 6 6 6 7 6 6 5 5 4 2 1 2 0 3 4 4 4 5 6 7 5 4 5 6 6 7 7 8 8 7 7 8 8 8 8 8 9
2 3 3 3 6 5 6 7 8 8 8 7 7 7 5 2 3 0 3 2 3 4 3 4 5 7 7 5 5 5 6 6 6 6 8 9 8 8 7 8 8 8 9 10
5 6 5 5 6 6 7 6 7 6 7 7 7 6 7 4 4 3 3 1 4 3 2 4 6 6 3 4 5 5 6 6 6 6 6 7 8 8 9 9 9 9 9 9
3 3 3 4 3 3 5 5 5 6 5 4 3 3 3 3 3 3 1 2 1 3 2 2 2 2 3 3 3 4 4 6 7 6 6 5 7 7 8 9 9 9 9 9
1 2 3 3 3 2 3 4 3 3 3 3 3 4 5 3 3 2 2 0 1 2 2 2 2 3 2 3 4 2 3 5 6 6 7 6 7 7 8 9 9 8 9 10
Wind_Direction
241 202 141 115 99 32 67 281 102 260 299 279 281 289 293 357 354 358 355 2 355 353 349 360 4 3 1 357 359 360 2 5 5 23 16 18 6 18 33 20 19 30 36 33
291 166 120 118 116 99 47 115 137 228 284 237 268 298 33 357 357 359 358 4 352 348 355 3 5 3 358 360 9 354 360 8 4 17 17 19 354 20 26 17 20 17 24 22
301 152 132 40 253 149 194 219 194 168 234 288 347 79 37 358 0 356 348 3 355 347 355 357 354 352 356 353 350 4 360 5 13 7 15 11 1 14 16 13 6 7 15 13
265 50 115 239 207 220 97 284 332 284 256 27 42 111 45 7 15 354 343 341 349 344 347 5 348 354 337 360 359 5 2 359 10 11 6 8 14 13 7 359 11 5 0 360
90 16 122 168 209 193 166 230 301 276 53 32 8 146 2 18 8 341 330 327 338 346 349 2 12 9 0 355 4 9 4 358 4 4 3 5 8 7 355 359 354 0 357 354
355 280 220 229 347 85 103 325 257 270 67 51 41 21 288 344 355 350 349 334 350 359 355 14 8 10 8 357 349 9 6 354 358 3 14 7 356 352 354 348 343 341 351 350
204 212 304 69 23 317 98 234 284 122 130 97 80 215 268 2 357 327 327 336 357 357 357 15 13 6 6 357 354 6 360 354 351 17 6 3 354 349 351 354 343 340 354 344
62 58 304 300 358 116 217 249 259 88 90 101 135 346 357 326 350 333 340 356 6 354 12 27 15 6 1 358 3 1 355 351 344 13 9 356 352 353 6 359 357 358 355 357
150 217 222 241 221 207 138 211 314 110 132 132 86 20 319 322 354 2 353 6 350 9 26 20 13 357 344 360 359 355 351 348 353 5 359 345 348 345 350 353 347 350 350 351
74 276 243 241 152 130 153 68 304 154 89 73 334 307 321 352 53 346 342 348 13 9 8 3 0 348 333 358 348 346 350 349 354 356 344 340 342 331 340 343 341 343 340 334
232 258 35 321 147 101 63 44 308 89 85 20 351 327 300 303 322 343 31 32 19 3 347 334 344 337 336 346 353 355 354 349 351 348 343 336 333 323 320 333 321 324 322 321
227 238 167 174 134 183 155 74 69 70 25 340 316 323 17 35 54 46 38 24 6 346 338 353 355 341 350 1 5 358 349 348 343 336 333 330 327 321 304 296 301 303 303 302
184 138 145 167 167 82 99 77 96 56 322 29 32 43 49 74 47 42 30 15 8 4 0 348 328 347 345 355 354 353 353 338 335 331 327 324 326 326 324 327 302 298 293 306
258 157 154 166 145 117 133 129 147 76 69 62 46 54 71 58 34 23 7 2 20 5 353 333 337 346 351 348 341 334 332 336 332 324 318 319 319 317 316 317 325 329 326 320
33 48 154 130 140 170 125 92 74 61 55 38 48 49 55 39 18 350 339 9 359 349 329 324 337 349 344 335 339 333 337 335 325 314 315 312 312 311 312 312 317 319 322 315
13 322 40 122 143 113 96 80 77 61 55 49 49 38 39 39 347 341 355 348 349 323 314 326 332 314 318 312 319 318 330 310 314 318 320 324 320 318 322 324 326 326 333 330
175 307 250 98 91 91 97 93 95 93 76 69 54 29 32 11 353 345 328 327 319 307 326 352 302 317 314 310 328 323 320 323 316 314 326 325 322 324 322 329 328 329 337 341
160 118 109 109 105 104 101 112 111 101 105 114 93 84 62 10 296 306 307 318 330 349 16 341 326 330 325 328 333 324 322 318 323 319 321 324 324 317 325 339 333 332 333 339
97 131 128 119 122 127 139 142 129 128 137 142 127 185 226 252 266 288 307 338 339 13 341 335 334 338 339 327 343 327 339 336 333 334 334 330 329 328 331 332 336 335 337 338
98 100 115 128 132 145 162 138 146 154 166 150 154 235 284 283 278 292 306 323 119 224 352 325 331 342 336 332 337 328 339 344 343 340 340 336 332 332 334 335 338 337 340 345
83 164 167 169 183 180 166 163 156 173 196 162 176 218 233 276 283 270 286 272 234 39 347 315 335 346 336 335 333 340 340 342 344 340 336 340 338 342 345 345 343 342 340 342
211 237 197 194 181 207 192 178 181 161 172 186 215 228 231 281 293 324 69 122 279 24 328 318 316 349 339 330 329 341 346 348 350 343 341 337 337 339 344 349 344 339 338 335
209 217 212 202 210 221 179 197 191 178 184 196 204 216 217 232 241 267 284 316 52 349 314 310 340 340 340 329 331 342 340 339 349 350 343 342 340 346 347 349 345 344 341 340
235 246 235 226 191 175 205 215 195 188 190 195 200 204 203 229 299 175 126 91 31 341 307 327 342 346 352 340 344 349 346 343 344 345 350 348 346 339 348 341 341 345 345 344
229 240 245 250 213 218 218 208 183 184 192 207 212 205 204 203 170 212 135 96 11 320 311 342 348 355 359 351 347 353 347 350 345 333 353 351 347 344 351 348 344 344 347 345
249 243 238 219 206 219 210 185 181 188 190 174 186 175 140 147 125 101 41 88 18 318 306 309 335 348 355 347 355 356 354 347 342 341 346 343 351 350 350 348 348 351 351 346
25 59 35 1 327 293 191 185 154 143 127 115 148 156 153 140 115 108 111 29 332 321 332 336 343 355 360 353 346 16 20 345 343 348 350 7 355 352 350 349 346 348 348 345